Showing default

FENGYUN 2H, 43491

Orbit data source: Space-Track

FENGYUN 2H, 43491 is a payload satellite owned by CNMSC (CN) in GEO that was launched on Tue, 05 Jun 2018 UTC via a CHANG ZHENG 3A launch vehicle from the Xichang Space Center, China (XSC). Payloads include a variety of satellites, spacecraft, and rockets equipped with specific instruments for various scientific and technological missions. These include communications satellites like Starlink; space stations such as the ISS; scientific satellites like the Hubble; Earth observation satellites from companies like Planet Labs, Umbra, and HawkEye 360; GPS; miniature CubeSats for education and research; and military/defense satellites.

Not visible in the next 10 days
FENGYUN 2H details
Identifier
43491, 2018-050A
Orbit
GEO
Last TLE update7 hours ago
Origin
Flag of CNCNMSC (CN / PRC)
ManufacturerSISE
MissionOperational Civil Weather
Bus & MotorFY-2, SHANXI AKM
Mass1,390 kg wet, ~600 kg dry
Launch date (UTC)
2018-06-05 (7 years ago)
Launch vehicle
CHANG ZHENG 3A
Launch site
Xichang Space Center, China (XSC)
Object type
Payload
Rocket body
Debris
Shape & HBRCyl, 3 m
Radar Cross Section6.680 m², Medium (>0.1 m² and < 1m²)

Expand to show TLE details & history

TLE from 7 hours ago
0 FENGYUN 2H
1 43491U 18050A   24361.11642479 -.00000103  00000-0  00000+0 0  9999
2 43491   1.6411  85.4430 0001076 175.5099 315.3978  1.00272602 24114
Epoch: 2024-12-26T02:47Z
Definitive object data (Epoch: 2024-12-26T02:47:39.101Z)
Latitude1.22812°
Longitude79.33543°
Altitude35,782.467 km
Speed3.075 km/s
True Right ascension14h 25m 23s
True Declination1° 13' 37"
Sunlit
Object was in daylight at TLE epoch
Visualization TLE readout
Latitude-1.46813°
Longitude-169.19439°
Altitude35,784.273 km
Speed3.075 km/s
Apparent Right ascension21h 49m 25s
Apparent Declination-6° 14' 55"
Sunlit
Object is in daylight
Visualization observer readout
Local Sidereal Time09:33:27
Azimuth352.869° N
Elevation-56.142°
Doppler factor1
Orbital elements
Apogee altitude35,791.972 km
Perigee altitude35,782.898 km
Semi-major axis42,165.572 km
Eccentricity0.0001076
Inclination1.6411°
RAAN85.443°
Arg. of periapsis175.5099°
True anomaly315.38914°
Mean anomaly315.3978°
Eccentric anomaly315.39347°
Mean motion0.25067 °/min
BSTARUnknown
Orbital period1436.14 mins
Loading historical data...
43491 neighbors
Authenticating...
Loading maneuver chart data...
Loading historical data...
Loading historical data...
Loading historical data...
Loading historical data...
Loading historical data...
Loading historical data...
Loading historical data...
Other satellites on launch #50 in the year 2018 (2018-06-05 UTC)

FENGYUN 2H Visibility forecast

Observer location: undefined°, undefined

FENGYUN 2H is not visible in the next 10 days
Span
Click to sort rows by Start time (UTC) header in descending order
Start Az.
Max El. time (UTC)
Max El. Az.
Max El.
End time (UTC)
End Az.
|